Ironwood, MI

11:53 PM CST on January 20, 2017 (GMT -0600)
Ironwood

Weather History for KIWD - November, 2011

Change the Weather History Date:

Sunday, November 13, 2011

  Actual Average Record
Temperature  
Mean Temperature 44 °F -  
Max Temperature 53 °F 37 °F 66 °F (1999)
Min Temperature 33 °F 25 °F 8 °F (1996)
Degree Days  
Heating Degree Days 21    
Moisture  
Dew Point 33 °F    
Average Humidity 65    
Maximum Humidity 87    
Minimum Humidity 41    
Precipitation  
Precipitation 0.00 in - - ()
Sea Level Pressure  
Sea Level Pressure 29.20 in    
Wind  
Wind Speed 10 mph (SW)    
Max Wind Speed 16 mph    
Max Gust Speed 28 mph    
Visibility 10 miles    
Events      
Averages and records for this station are not official NWS values.
T = Trace of Precipitation, MM = Missing Value Source: NWS Daily Summary

Daily Weather History Graph

Daily Weather History Graph

Search for Another Location

Airport or City:

Trip Planner

Search our weather history database for the weather conditions in past years. The results will help you decide how hot, cold, wet, or windy it might be!

Date:

Astronomy

Nov. 13, 2011 Rise Set
Actual Time 6:59 AM CST 4:29 PM CST
Civil Twilight 6:26 AM CST 5:02 PM CST
Nautical Twilight 5:50 AM CST 5:38 PM CST
Astronomical Twilight 5:14 AM CST 6:14 PM CST
Moon 6:32 PM CST (11/13) 9:38 AM CST (11/13)
Length of Visible Light 10h 35m
Length of Day
9h 30m
Waning Gibbous, 92% of the Moon is Illuminated
Nov 13
Waning Gibbous
Nov 18
Last Quarter
Nov 25
New
Dec 2
First Quarter
Dec 10
Full

Hourly Weather History & Observations

Time (CST) Temp. Windchill Dew Point Humidity Pressure Visibility Wind Dir Wind Speed Gust Speed Precip Events Conditions
12:35 AM 46.4 °F 42.4 °F 35.6 °F 66% 29.20 in 10.0 mi South 8.1 mph - N/A   Clear
12:55 AM 46.4 °F 41.5 °F 35.6 °F 66% 29.18 in 10.0 mi South 10.4 mph 16.1 mph N/A   Clear
1:15 AM 46.4 °F 41.5 °F 35.6 °F 66% 29.17 in 10.0 mi South 10.4 mph 18.4 mph N/A   Clear
1:55 AM 46.4 °F 40.1 °F 33.8 °F 62% 29.14 in 10.0 mi South 15.0 mph 20.7 mph N/A   Clear
2:15 AM 46.4 °F 39.8 °F 33.8 °F 62% 29.14 in 10.0 mi South 16.1 mph 27.6 mph N/A   Clear
2:35 AM 46.4 °F 40.1 °F 33.8 °F 62% 29.14 in 10.0 mi SSW 15.0 mph 23.0 mph N/A   Clear
2:55 AM 46.4 °F 40.7 °F 33.8 °F 62% 29.15 in 10.0 mi SSW 12.7 mph 20.7 mph N/A   Clear
3:15 AM 46.4 °F 40.1 °F 33.8 °F 62% 29.14 in 10.0 mi South 15.0 mph 23.0 mph N/A   Clear
3:35 AM 46.4 °F 40.7 °F 33.8 °F 62% 29.13 in 10.0 mi South 12.7 mph 23.0 mph N/A   Clear
3:55 AM 46.4 °F 42.4 °F 33.8 °F 62% 29.13 in 10.0 mi South 8.1 mph 23.0 mph N/A   Clear
4:15 AM 44.6 °F 39.7 °F 33.8 °F 66% 29.14 in 10.0 mi South 9.2 mph 17.3 mph N/A   Clear
4:35 AM 44.6 °F 39.2 °F 33.8 °F 66% 29.14 in 10.0 mi South 10.4 mph - N/A   Clear
4:55 AM 44.6 °F 39.7 °F 33.8 °F 66% 29.13 in 10.0 mi South 9.2 mph - N/A   Clear
5:35 AM 44.6 °F 39.7 °F 33.8 °F 66% 29.13 in 10.0 mi South 9.2 mph - N/A   Clear
6:55 AM 42.8 °F 37.5 °F 33.8 °F 70% 29.13 in 10.0 mi SSW 9.2 mph - N/A   Clear
7:15 AM 42.8 °F 37.5 °F 33.8 °F 70% 29.14 in 10.0 mi SSW 9.2 mph - N/A   Clear
7:35 AM 42.8 °F 38.6 °F 33.8 °F 70% 29.15 in 10.0 mi SSW 6.9 mph - N/A   Clear
7:55 AM 42.8 °F 38.6 °F 33.8 °F 70% 29.15 in 10.0 mi SW 6.9 mph - N/A   Clear
8:35 AM 42.8 °F 38.0 °F 35.6 °F 76% 29.16 in 10.0 mi SSW 8.1 mph - N/A   Clear
8:55 AM 42.8 °F 38.0 °F 33.8 °F 70% 29.16 in 10.0 mi SSW 8.1 mph - N/A   Clear
9:15 AM 44.6 °F 38.8 °F 33.8 °F 66% 29.16 in 10.0 mi SSW 11.5 mph 17.3 mph N/A   Clear
9:35 AM 44.6 °F 39.7 °F 33.8 °F 66% 29.16 in 10.0 mi SW 9.2 mph - N/A   Scattered Clouds
9:55 AM 44.6 °F 40.2 °F 33.8 °F 66% 29.16 in 10.0 mi SSW 8.1 mph - N/A   Scattered Clouds
10:15 AM 44.6 °F 39.2 °F 33.8 °F 66% 29.16 in 10.0 mi SSW 10.4 mph - N/A   Scattered Clouds
10:55 AM 48.2 °F - 35.6 °F 62% 29.16 in 10.0 mi SSW 10.4 mph - N/A   Mostly Cloudy
11:15 AM 48.2 °F - 33.8 °F 58% 29.16 in 10.0 mi SSW 10.4 mph 16.1 mph N/A   Mostly Cloudy
11:35 AM 48.2 °F - 33.8 °F 58% 29.15 in 10.0 mi South 12.7 mph - N/A   Mostly Cloudy
11:55 AM 50.0 °F - 32.0 °F 50% 29.15 in 10.0 mi SSW 10.4 mph - N/A   Mostly Cloudy
12:15 PM 50.0 °F - 33.8 °F 54% 29.15 in 10.0 mi SSW 10.4 mph - N/A   Scattered Clouds
12:35 PM 51.8 °F - 32.0 °F 47% 29.14 in 10.0 mi SW 8.1 mph - N/A   Mostly Cloudy
12:55 PM 51.8 °F - 32.0 °F 47% 29.14 in 10.0 mi SSW 5.8 mph - N/A   Scattered Clouds
1:15 PM 53.6 °F - 32.0 °F 44% 29.13 in 10.0 mi WSW 6.9 mph - N/A   Scattered Clouds
1:35 PM 53.6 °F - 30.2 °F 41% 29.13 in 10.0 mi WSW 6.9 mph - N/A   Overcast
1:55 PM 53.6 °F - 32.0 °F 44% 29.14 in 10.0 mi WSW 10.4 mph - N/A   Overcast
2:15 PM 51.8 °F - 30.2 °F 44% 29.15 in 10.0 mi West 10.4 mph - N/A   Overcast
2:55 PM 51.8 °F - 33.8 °F 50% 29.17 in 10.0 mi WSW 11.5 mph - N/A   Overcast
3:15 PM 51.8 °F - 33.8 °F 50% 29.17 in 10.0 mi SW 8.1 mph - N/A   Overcast
3:35 PM 50.0 °F - 33.8 °F 54% 29.18 in 10.0 mi WSW 8.1 mph - N/A   Overcast
4:15 PM 48.2 °F - 33.8 °F 58% 29.20 in 10.0 mi WSW 8.1 mph - N/A   Overcast
4:35 PM 46.4 °F 41.5 °F 30.2 °F 53% 29.21 in 10.0 mi West 10.4 mph - N/A   Mostly Cloudy
4:55 PM 46.4 °F 41.9 °F 30.2 °F 53% 29.22 in 10.0 mi West 9.2 mph - N/A   Scattered Clouds
5:15 PM 44.6 °F 38.4 °F 30.2 °F 57% 29.24 in 10.0 mi NW 12.7 mph 16.1 mph N/A   Scattered Clouds
5:35 PM 42.8 °F 37.5 °F 33.8 °F 70% 29.25 in 10.0 mi NW 9.2 mph - N/A   Overcast
6:15 PM 39.2 °F 35.0 °F 33.8 °F 81% 29.28 in 10.0 mi WNW 5.8 mph - N/A   Mostly Cloudy
7:15 PM 37.4 °F 32.8 °F 33.8 °F 87% 29.28 in 10.0 mi West 5.8 mph - N/A   Overcast
7:35 PM 37.4 °F 30.8 °F 32.0 °F 81% 29.30 in 10.0 mi West 9.2 mph - N/A   Overcast
7:55 PM 37.4 °F 30.3 °F 32.0 °F 81% 29.31 in 10.0 mi West 10.4 mph - N/A   Overcast
8:15 PM 37.4 °F 30.8 °F 30.2 °F 75% 29.31 in 10.0 mi West 9.2 mph - N/A   Mostly Cloudy
8:35 PM 35.6 °F 28.6 °F 30.2 °F 81% 29.33 in 10.0 mi West 9.2 mph - N/A   Overcast
9:15 PM 37.4 °F 29.3 °F 30.2 °F 75% 29.33 in 10.0 mi West 12.7 mph - N/A   Overcast
9:35 PM 35.6 °F 27.1 °F 30.2 °F 81% 29.34 in 10.0 mi West 12.7 mph - N/A   Overcast
9:55 PM 35.6 °F 28.0 °F 28.4 °F 75% 29.35 in 10.0 mi West 10.4 mph - N/A   Overcast
10:15 PM 37.4 °F 30.3 °F 30.2 °F 75% 29.35 in 10.0 mi West 10.4 mph - N/A   Overcast
10:55 PM 37.4 °F 28.5 °F 30.2 °F 75% 29.38 in 10.0 mi West 15.0 mph 20.7 mph N/A   Overcast
11:15 PM 37.4 °F 30.8 °F 30.2 °F 75% 29.38 in 10.0 mi West 9.2 mph - N/A   Overcast
11:35 PM 35.6 °F 29.9 °F 30.2 °F 81% 29.39 in 10.0 mi WSW 6.9 mph - N/A   Mostly Cloudy
11:55 PM 33.8 °F 27.7 °F 28.4 °F 81% 29.40 in 10.0 mi SW 6.9 mph - N/A   Mostly Cloudy